Retour au catalogue

STARLINK-34784

ActifCommunicationsVLEO
NORAD 65458·PAYLOAD·🇺🇸 United States

Lancé Sep 3, 2025 depuis Cape Canaveral Space Force Station

Loading…

Prochains Passages (prochaines 24 heures)

TLE

FraisSource: CelesTrak SupGP

Époque: Sep 14, 2026, 21:10 UTC

1 65458C 25195A   26257.88243056 -.00014254  00000+0 -45846-3 0  2572
2 65458  53.1582  97.7586 0001404  81.4523 261.9109 15.31703270    16

Suivez STARLINK-34784 en temps réel avec AllMySat

Download on the App Store